User: anonymous   Login
Location: Unspecified
(0.0000°N, 0.0000°E)
Time: 18:27:08
(UTC+02:00)
Language:

Cosmos 1300 - Orbit

View from above orbital plane
View from above orbital plane
View from above satellite
View from above satellite

Ground track
Ground track

The orbit data is extracted from the following two-line orbital elements,

1 12785U 81082A   15149.84746905  .00002719  00000-0  14640-3 0  9992
2 12785 082.5058 093.0071 0001497 043.3708 334.1216 15.14447243838328
Epoch (UTC): 29 May 2015 20:20:21
Eccentricity: 0.0001497
inclination: 82.5058°
perigee height: 521 km
apogee height: 523 km
right ascension of ascending node: 93.0071°
argument of perigee: 43.3708°
revolutions per day: 15.14447243
mean anomaly at epoch: 334.1216°
orbit number at epoch: 83832

The dashed part of the orbit path shows where the satellite is in the earth's shadow,  

DLR